Content
SEND FEEDBACK

Daily
Averages
Monthly
Summary
United States of America

NAPERVILLE, ILLINOIS


Home > North America > United States > Illinois
Elevation: 687 feet     Latitude: 41 49N     Longitude: 088 04W

WEATHER
 
SELECT A DAY
Number of Records: 199,879;   Date Range: 1/1/95 - 10/30/14
 
SHARE

PRINT THIS DATA

[ ← Previous Day ]
WEATHER ALMANAC - FEBRUARY 5, 2013
[ Next Day → ]
[ °C ]   °F
Weather ElementAverageHighLow
Temperature25.1 °F30.2 °F (1:41 pm)10.9 °F (3:51 am)
Dewpoint20.2 °F26.6 °F (2:29 pm)6.1 °F (1:51 am)
Humidity81.5 %93 % (7:34 am)69 % (11:51 pm)
Barometer29.87 in30.09 in (11:51 pm)29.78 in (12:35 pm)
Wind Speed10.7 mph17.3 mph (11:38 am)
Weather ElementAverage
Visibility6 mi
Wind DirectionWSW (254.9 °)

Weather ElementTotal
Precipitation0.10 in
Heating Degree Days44.5 (Base 65)
Averaged from 43 records on February 5, 2013
WEATHER CONDITIONS BREAKOUT
WIND DIRECTION BREAKOUT
WEATHER BY HOUR - FEBRUARY 5, 2013
[ °C ]   °F
Local TimeTemperatureDewpointHumidityBarometerVisibilityWind DirectionWind SpeedGust SpeedPrecipitationEventsConditions
1:51 AM12.9 °F6.1 °F74 %29.94 in10.0 miCalmOvercast
2:51 AM12.0 °F6.1 °F77 %29.92 in10.0 miWSW (250°)3.5 mphOvercast
3:51 AM10.9 °F7.0 °F84 %29.93 in10.0 miWSW (250°)8.1 mphPartly Cloudy
4:51 AM12.0 °F8.1 °F84 %29.91 in10.0 miSW (220°)4.6 mphOvercast
5:51 AM16.0 °F10.9 °F81 %29.91 in10.0 miSW (230°)8.1 mphOvercast
6:51 AM17.1 °F12.9 °F84 %29.91 in5.0 miSW (220°)5.8 mph0.00 inSnowLight Snow
7:00 AM17.6 °F14.0 °F86 %29.88 in4.0 miSSW (210°)5.8 mph0.00 inSnowLight Snow
7:12 AM17.6 °F14.0 °F86 %29.87 in2.5 miSSW (210°)5.8 mph0.00 inSnowLight Snow
7:34 AM17.6 °F15.8 °F93 %29.86 in3.0 miSSW (200°)8.1 mph0.00 inSnowLight Snow
7:51 AM18.0 °F15.1 °F88 %29.89 in4.0 miSSW (200°)9.2 mph0.00 inSnowLight Snow
8:44 AM19.4 °F17.6 °F93 %29.83 in5.0 miSouth (190°)10.4 mph0.00 inOvercast
8:51 AM21.0 °F18.0 °F88 %29.86 in5.0 miSSW (210°)10.4 mph0.00 inOvercast
9:51 AM23.0 °F19.0 °F85 %29.84 in7.0 miSW (220°)10.4 mphMostly Cloudy
10:06 AM24.8 °F19.4 °F80 %29.81 in7.0 miSSW (210°)13.8 mphMostly Cloudy
10:22 AM24.8 °F21.2 °F86 %29.80 in9.0 miSSW (210°)13.8 mphOvercast
10:51 AM27.0 °F21.0 °F78 %29.83 in10.0 miSW (230°)12.7 mphOvercast
11:38 AM28.4 °F21.2 °F74 %29.80 in10.0 miWSW (240°)17.3 mphOvercast
11:51 AM28.0 °F23.0 °F81 %29.82 in10.0 miSW (230°)17.3 mphOvercast
12:35 PM28.4 °F23.0 °F80 %29.78 in4.0 miSW (230°)16.1 mph0.00 inSnowLight Snow
12:51 PM28.9 °F23.0 °F78 %29.81 in3.0 miWSW (250°)15.0 mph0.00 inSnowLight Snow
12:59 PM28.4 °F23.0 °F80 %29.78 in2.0 miWSW (250°)12.7 mph0.00 inSnowLight Snow
1:20 PM28.4 °F23.0 °F80 %29.78 in3.0 miWest (260°)12.7 mph0.00 inSnowLight Snow
1:41 PM30.2 °F24.8 °F80 %29.78 in1.2 miWest (270°)15.0 mph0.00 inSnowLight Snow
1:49 PM30.2 °F24.8 °F80 %29.79 in0.5 miWest (270°)15.0 mph0.00 inSnowSnow
1:51 PM30.0 °F25.0 °F82 %29.82 in0.5 miWest (270°)15.0 mph0.00 inSnowSnow
2:29 PM28.4 °F26.6 °F93 %29.79 in1.2 miWest (270°)11.5 mph0.02 inSnowSnow
2:32 PM28.4 °F26.6 °F93 %29.79 in2.0 miWest (270°)11.5 mph0.02 inSnowLight Snow
2:48 PM30.2 °F26.6 °F86 %29.80 in3.0 miWest (270°)11.5 mph0.02 inOvercast
2:51 PM30.0 °F26.1 °F85 %29.83 in3.0 miWest (270°)11.5 mph0.02 inOvercast
3:14 PM30.2 °F26.6 °F86 %29.81 inWest (280°)12.7 mph
3:23 PM30.2 °F24.8 °F80 %29.81 in4.0 miWNW (290°)10.4 mphHaze
3:42 PM30.2 °F24.8 °F80 %29.83 in5.0 miWest (280°)11.5 mphHaze
3:51 PM30.0 °F25.0 °F82 %29.87 in5.0 miWNW (300°)12.7 mphHaze
4:36 PM30.2 °F24.8 °F80 %29.85 in5.0 miNW (310°)10.4 mphHaze
4:51 PM30.0 °F24.1 °F79 %29.90 in5.0 miWNW (300°)13.8 mphHaze
5:51 PM28.9 °F24.1 °F82 %29.93 in7.0 miWNW (300°)12.7 mphOvercast
6:51 PM28.9 °F23.0 °F78 %29.97 in8.0 miNW (320°)12.7 mph0.02 inOvercast
7:51 PM28.9 °F21.9 °F75 %30.00 in10.0 miNW (310°)8.1 mphOvercast
8:41 PM28.4 °F21.2 °F74 %29.98 in9.0 miNW (320°)8.1 mphOvercast
8:51 PM30.0 °F21.9 °F72 %30.01 in10.0 miNW (310°)9.2 mphOvercast
9:51 PM28.9 °F21.9 °F75 %30.04 in9.0 miNNW (330°)6.9 mphOvercast
10:51 PM28.9 °F21.0 °F72 %30.06 in10.0 miNNW (340°)9.2 mphOvercast
11:51 PM28.0 °F19.0 °F69 %30.09 in10.0 miNorth (360°)9.2 mphOvercast
Hourly data recorded from KORD, located miles away from Naperville, Illinois







STORIES FROM OUR PARTNERS